Weather in Fallujah

Iraq     33°21′39″N   43°47′11″E
temp.,
°C
wind,
m/s
gust,
m/s
humid.,
%
clouds,
%
prec.,
mm/h
press.,
hPa
HPBL,
m
25 july, sun
sun2500:00+37n45190 0.0 99959
03:00+36nne45210 0.0 99957
06:00+34nnw33230 0.0 100039
09:00+40nnw33150 0.0 1001504
12:00+45wnw23110 0.0 10011681
15:00+47wnw55100 0.0 10002334
18:00+45nnw55100 0.0 9991795
21:00+42nnw56130 0.0 100070
26 july, mon
mon2600:00+39nw713180 0.0 1000229
03:00+36nnw714230 0.0 1001257
06:00+36n613190 0.0 1001236
09:00+43n89123 0.0 1002732
12:00+48n7890 0.0 10012781
15:00+49nnw9980 0.0 10003948
18:00+47nnw89100 0.0 9991779
21:00+42nnw59150 0.0 1000109
27 july, tue
tue2700:00+40n56150 0.0 100070
03:00+38nne57150 0.0 99975
06:00+37n47170 0.0 1000100
09:00+44n57110 0.0 1000620
12:00+48nw7790 0.0 9992049
15:00+49nnw7890 0.0 9973721
18:00+47nnw7890 0.0 9962048
21:00+41nnw511160 0.0 997163
28 july, wed
wed2800:00+39nw815190 0.0 997302
03:00+37nw714230 0.0 997256
06:00+35nw512250 0.0 998261
09:00+41nw89120 0.0 998789
12:00+45nw81070 0.0 9972876
15:00+45nw101180 0.0 9953252
18:00+43wnw91098 0.0 9952725
21:00+38wnw612130 0.0 996170
29 july, thu
thu2900:00+36wnw612160 0.0 996163
03:00+34wnw59180 0.0 994116
06:00+33wnw613190 0.0 995245
09:00+39nw910140 0.0 996703
12:00+43nw89110 0.0 9951503
15:00+45nw8890 0.0 9943165
18:00+44nw6790 0.0 9941207
21:00+39wnw510140 0.0 995110